Theta_e
344 347 340 336 332 331 330 329 328 331 331 328 328 330 336 340 326 322 344 354 338 339 348 344 342 342 338 340 341 339 340 342 342 345 349 350 352 351 351 350 350 350 352 345 336 336 339 338 337 336 334 332 332 331 330 330 328 327 327 326 325 325 326 328 331 332 333 333 331 329 329 329 329 329 329 329 330 331 333 335 335 334 333 332 332 330 331
337 338 332 333 331 327 328 329 330 331 330 330 329 332 338 338 331 332 340 344 343 343 344 344 343 340 338 340 340 339 340 341 342 346 349 349 350 350 348 348 349 351 350 341 334 336 337 335 336 335 332 331 330 328 327 327 327 327 327 327 326 326 326 328 331 332 332 333 332 330 330 330 329 329 329 329 329 329 330 331 333 333 332 332 331 330 331
337 342 336 333 332 330 327 327 331 331 330 331 330 331 335 333 332 339 340 339 346 350 347 347 343 340 341 341 340 341 340 342 344 345 346 346 348 348 346 346 348 349 348 338 332 335 335 333 334 333 331 331 329 327 325 325 326 327 327 328 327 327 328 328 329 330 330 333 332 330 331 332 331 329 328 328 328 328 329 330 331 331 332 333 331 330 332
331 340 333 329 334 330 324 326 334 332 329 330 330 333 336 331 331 336 331 333 349 352 342 340 339 338 340 341 343 344 342 342 345 345 344 344 346 346 345 345 346 348 348 340 333 333 333 333 333 332 331 330 328 328 326 325 327 327 328 329 328 328 329 328 327 327 329 331 331 330 332 333 332 330 329 328 328 328 329 330 329 329 331 332 331 329 332
332 341 332 328 332 327 325 337 340 331 331 332 331 336 339 338 343 342 333 340 355 349 338 338 340 340 342 344 344 342 341 342 342 343 345 343 345 346 343 344 348 347 343 336 332 332 333 333 333 332 331 330 329 328 326 326 328 328 328 329 327 328 330 328 327 327 327 329 329 330 332 333 333 332 330 329 329 328 329 329 329 329 330 331 330 329 332
333 344 339 331 330 325 331 349 343 328 331 331 328 333 339 342 351 353 348 352 352 343 339 342 342 342 344 341 339 338 338 341 342 342 344 343 345 346 343 345 349 341 333 332 331 332 333 333 333 333 332 331 330 329 327 326 327 328 328 327 325 327 329 328 327 327 326 327 328 328 331 333 333 332 331 330 329 329 329 329 329 330 330 330 330 330 333
335 344 341 329 328 334 343 350 341 331 332 332 331 335 340 342 350 355 350 346 344 342 343 341 339 340 339 337 338 338 336 338 340 341 342 344 348 348 346 349 345 334 329 332 332 332 333 333 333 332 332 332 331 329 328 327 326 327 328 326 325 327 328 326 326 326 324 325 325 326 329 333 334 333 332 332 330 329 329 329 329 331 330 329 329 330 333
331 332 332 328 335 350 353 344 336 334 337 336 331 332 337 342 346 349 348 346 346 345 342 338 338 340 339 338 340 338 335 335 336 336 339 343 350 350 345 341 337 332 330 332 331 332 333 332 333 332 331 332 331 329 329 328 327 327 328 327 327 328 327 326 325 325 325 325 326 326 328 331 333 334 332 331 328 328 329 328 329 330 329 328 329 330 332
332 331 333 333 332 336 344 344 337 334 336 334 332 331 336 344 344 342 345 349 347 343 340 338 340 341 341 342 341 338 336 335 335 337 338 338 341 342 335 331 332 331 331 332 331 332 332 332 332 332 331 332 332 330 329 328 328 328 328 327 328 328 327 326 324 324 326 327 327 328 328 330 333 334 332 329 325 325 327 328 328 329 328 327 328 330 331
333 329 327 329 324 325 340 350 344 338 336 340 350 346 340 346 346 341 344 346 343 341 340 338 340 341 342 346 347 342 337 336 339 340 336 330 331 333 330 330 332 331 331 332 331 331 332 332 331 332 332 333 332 330 329 329 328 328 328 328 328 329 328 326 324 324 325 326 327 328 330 332 333 333 330 327 324 325 326 327 327 328 328 328 329 329 330
331 323 321 327 325 326 343 352 344 338 336 345 357 345 336 343 345 337 339 342 340 339 339 340 343 341 341 351 356 347 338 338 340 341 337 331 329 330 331 331 331 331 331 331 331 331 331 330 330 331 332 332 332 331 331 330 329 329 329 329 329 328 327 325 324 323 323 325 327 329 329 331 332 331 327 324 324 324 325 327 328 329 329 328 328 328 328
330 326 326 328 325 331 352 358 345 336 334 341 341 330 333 349 346 336 339 341 339 341 342 343 345 343 347 357 356 345 339 337 336 336 336 333 329 330 330 329 329 331 331 330 330 330 329 328 329 330 332 332 332 332 332 332 331 331 331 330 329 327 326 325 325 324 322 324 326 328 327 327 329 328 325 324 324 324 325 327 329 329 329 330 329 327 328
330 328 326 326 328 341 354 347 340 337 333 333 331 330 342 352 345 341 345 343 342 348 347 345 347 350 354 353 345 338 338 339 337 333 330 329 329 328 329 329 329 330 329 328 329 328 327 328 329 330 332 332 331 330 330 331 330 329 329 330 330 328 325 324 324 323 323 323 324 325 325 326 326 326 325 325 325 325 326 328 328 327 328 330 329 328 327
330 331 330 327 331 346 346 336 341 342 331 330 337 345 352 352 345 346 346 345 349 353 350 353 357 355 349 341 338 338 340 342 341 334 328 327 329 329 329 330 329 327 327 326 327 327 327 328 329 330 330 330 328 328 329 329 328 327 327 330 331 327 324 323 323 322 322 322 322 323 324 324 324 324 325 325 325 327 328 327 326 325 325 326 326 327 327
330 328 327 326 331 343 340 333 342 346 339 343 352 351 347 348 350 348 343 344 350 350 348 352 355 351 342 336 337 342 344 342 338 332 327 327 328 330 332 329 326 325 326 326 326 327 327 328 328 327 327 326 326 327 329 328 327 327 328 330 331 327 324 324 323 321 322 322 322 322 323 323 323 324 324 324 324 327 328 326 325 325 324 323 322 324 327
331 326 328 338 347 347 340 340 350 351 347 352 357 349 342 343 347 349 346 343 347 350 350 348 347 347 344 340 341 343 341 338 335 331 327 325 326 329 329 327 326 326 326 327 327 326 327 326 325 325 325 326 327 329 328 327 327 329 330 331 332 328 324 324 323 321 322 322 322 322 322 322 322 322 323 322 322 324 326 326 326 325 323 323 322 322 325
344 341 345 354 357 348 341 351 360 353 343 344 346 345 343 342 343 346 346 343 347 352 352 347 343 343 342 341 344 345 341 339 338 333 328 324 325 326 325 326 326 326 325 326 326 326 325 325 324 324 325 326 328 328 328 327 328 329 330 330 331 328 324 322 322 322 322 322 322 321 321 320 321 321 322 322 321 322 323 324 326 324 323 323 322 321 323
345 343 340 342 346 342 337 342 348 344 338 338 340 342 344 347 349 351 348 347 347 347 347 344 343 345 348 347 347 346 344 343 338 332 326 324 324 324 325 326 326 325 326 327 326 326 326 326 326 327 327 327 328 329 329 329 328 328 328 330 331 328 324 322 322 323 322 322 322 321 320 320 321 321 322 322 322 322 323 324 325 325 323 323 323 322 321
334 334 334 335 337 336 334 334 337 338 335 335 341 347 345 343 347 351 351 347 344 341 341 339 339 344 348 345 343 345 344 342 339 332 326 324 324 324 324 325 326 326 327 327 327 327 327 327 329 330 329 329 329 330 331 329 325 324 327 329 329 326 322 322 323 322 321 321 322 321 320 321 321 321 322 323 323 323 322 323 324 324 324 323 323 322 321
337 337 339 339 334 332 334 336 336 336 335 334 339 343 339 337 340 343 342 340 338 337 336 334 333 338 342 339 340 342 340 340 340 334 324 323 325 325 324 326 327 326 326 327 327 328 327 328 329 329 329 329 328 329 330 327 324 324 328 328 327 324 322 322 323 321 321 322 322 321 321 321 321 321 322 322 322 323 323 323 323 323 324 324 323 323 322
346 335 329 331 332 331 334 335 335 335 334 336 337 338 338 338 339 338 337 336 336 334 333 333 334 337 342 344 343 341 341 343 341 332 327 327 327 325 325 327 327 327 327 327 328 328 328 328 327 328 328 327 327 328 329 326 324 326 327 326 325 323 322 322 322 322 322 322 322 321 321 321 321 322 322 322 322 322 322 322 322 323 323 324 323 323 322
344 338 332 334 336 334 333 333 334 335 336 338 338 337 338 338 338 339 340 338 336 332 329 333 339 342 341 340 341 342 344 341 333 328 328 330 329 328 328 328 328 327 327 327 327 328 327 326 326 327 329 327 327 328 328 325 324 325 324 323 323 323 322 322 322 322 322 322 321 321 321 321 322 322 322 322 322 322 322 322 322 322 322 323 323 323 323
339 343 345 347 347 340 334 334 337 338 341 341 337 333 334 335 338 341 340 334 335 335 330 327 333 341 340 333 334 344 342 331 325 327 328 329 329 329 329 329 328 328 327 327 328 327 325 324 326 328 328 326 325 326 326 324 323 324 324 323 322 322 322 321 322 323 322 321 321 321 321 322 322 322 323 322 322 322 323 323 322 321 321 322 323 323 323
335 337 340 345 346 339 334 337 340 341 341 341 335 330 332 335 339 343 340 335 334 339 338 329 324 329 332 326 329 341 339 327 322 325 327 327 327 327 328 328 328 327 327 327 327 326 324 325 325 326 326 325 324 324 324 325 324 325 324 323 322 323 323 322 322 323 323 322 322 322 322 322 322 323 323 323 323 322 322 322 322 321 321 321 321 322 323
333 334 337 342 342 338 336 337 337 337 339 339 335 333 335 338 337 336 338 338 333 334 341 337 326 324 324 323 326 332 331 326 324 323 323 325 326 325 326 326 326 326 325 325 325 326 326 326 326 325 326 325 324 323 324 326 327 327 326 324 323 322 322 322 322 322 323 322 322 321 321 322 323 323 324 323 323 323 323 323 322 321 321 321 321 320 321
332 335 336 336 337 336 335 332 330 332 334 334 333 333 333 335 334 330 329 332 330 327 331 334 328 324 322 322 325 326 324 325 326 324 322 322 323 323 325 325 324 324 324 325 326 326 325 325 325 325 325 325 325 325 327 327 328 327 325 324 323 322 322 323 324 323 322 322 321 322 322 323 323 324 324 323 323 323 323 322 322 321 321 321 321 320 320
333 332 330 330 330 331 332 331 330 330 331 331 332 331 327 324 326 326 325 327 328 326 327 328 327 325 322 323 325 326 325 325 325 322 320 320 320 321 322 321 321 321 321 322 322 322 322 324 325 326 326 325 325 326 326 326 326 324 323 323 323 323 323 325 325 324 321 321 322 323 323 324 325 324 324 324 323 323 323 322 322 321 321 321 321 320 320
334 330 327 327 329 330 331 331 331 333 332 330 330 328 323 322 325 327 328 331 332 328 327 326 325 325 325 325 325 326 325 324 323 321 321 320 319 319 319 319 319 319 319 319 320 321 324 326 326 326 325 324 324 325 325 324 325 325 324 324 324 324 325 325 323 322 321 322 324 325 325 325 324 323 323 323 322 323 323 321 321 321 321 320 320 319 320
331 330 330 330 330 331 331 331 331 334 333 328 326 325 325 328 330 329 330 333 332 330 329 327 325 324 325 325 325 324 323 322 322 322 321 320 319 319 319 318 319 319 320 321 322 322 323 324 325 326 326 325 327 327 326 325 326 326 326 326 326 325 325 323 322 321 322 324 325 325 325 324 324 323 323 322 322 322 322 321 321 321 320 319 320 319 320
329 329 330 330 329 329 331 333 334 335 333 330 328 327 328 331 331 329 328 329 331 332 330 327 326 326 325 324 325 325 324 323 323 322 322 321 320 320 319 320 321 322 323 324 323 322 323 324 326 327 327 326 326 326 325 325 326 327 327 326 325 324 324 322 322 323 324 324 324 324 323 323 323 324 323 322 322 322 321 320 320 320 319 319 319 319 319
330 329 330 332 333 334 337 338 335 333 330 328 326 325 326 327 329 329 328 328 329 330 328 326 326 328 326 325 324 324 324 324 323 321 321 321 321 320 320 321 322 324 324 324 324 323 323 324 324 325 323 322 322 323 324 324 325 325 326 326 325 325 324 323 324 324 324 324 324 324 323 323 322 322 322 321 322 321 320 319 319 319 319 319 317 316 317
333 333 334 336 336 335 336 336 331 327 325 325 325 326 325 325 326 327 327 326 326 325 325 325 325 324 324 325 325 324 323 323 322 321 322 323 322 322 323 323 323 324 324 323 323 323 321 321 321 320 319 320 321 321 321 322 322 322 323 323 325 325 324 324 324 323 323 323 323 322 322 321 320 320 321 321 321 321 319 318 318 318 317 317 315 314 314
336 335 335 336 334 332 333 331 327 324 324 324 324 325 324 323 324 324 323 323 324 323 321 321 320 320 322 325 326 325 324 323 321 321 322 323 324 324 325 324 323 322 321 321 322 321 320 320 320 319 317 318 320 320 320 321 322 322 322 323 324 324 324 323 323 322 322 322 321 320 320 319 318 319 319 319 319 319 318 317 316 315 315 314 313 311 311
333 333 332 333 331 329 328 327 324 323 324 323 323 325 324 321 320 321 321 320 321 321 319 318 318 319 321 322 322 322 322 323 323 322 322 323 325 325 323 322 321 321 320 320 320 320 319 320 320 318 316 316 318 320 321 322 322 323 324 324 323 322 322 322 321 321 320 318 318 317 317 316 316 316 316 316 316 316 315 315 314 313 312 312 311 310 310
329 329 329 329 328 326 325 325 323 322 322 322 323 324 322 318 318 320 321 320 319 319 318 317 317 319 319 319 319 319 319 320 321 321 321 323 325 324 322 321 321 320 318 318 318 318 318 318 316 314 315 317 319 321 322 322 323 322 322 321 320 319 319 318 318 318 317 315 314 313 313 313 313 313 312 312 312 312 312 311 311 310 310 309 309 308 308
325 326 326 326 324 324 324 323 322 321 322 323 324 324 321 318 317 319 319 318 318 318 317 317 317 318 318 318 319 319 319 320 322 322 322 323 324 323 321 320 319 317 315 315 315 316 317 316 314 313 315 318 320 320 320 321 321 320 319 318 316 315 314 314 313 313 312 311 311 310 309 309 309 309 309 309 308 308 308 308 308 308 307 307 307 306 305
322 324 325 324 322 321 320 320 320 320 322 323 323 322 320 318 317 318 318 318 318 318 317 316 317 317 317 317 319 320 321 322 323 323 323 323 322 321 319 317 315 314 313 313 314 314 314 313 311 313 316 318 318 317 317 318 318 316 315 315 313 312 311 311 310 309 308 308 307 306 304 304 303 304 304 305 305 306 306 305 305 305 305 306 306 305 304
322 322 322 322 320 319 319 320 319 319 320 321 321 320 318 317 318 318 318 318 317 317 316 316 316 317 317 317 318 319 321 322 322 321 322 321 320 318 316 313 312 312 312 312 311 311 310 309 310 313 316 317 315 315 315 315 314 313 312 311 309 309 308 308 308 307 307 306 304 303 302 301 300 301 301 301 302 303 303 303 303 303 303 304 304 303 303
323 322 321 320 320 320 319 320 319 318 318 320 320 319 318 317 317 317 317 317 317 318 317 317 317 317 317 318 317 318 319 319 319 319 319 318 316 314 313 312 311 311 310 309 308 309 310 310 311 314 315 315 314 313 312 312 311 311 309 308 307 307 306 306 306 306 306 305 305 303 302 301 301 300 299 300 300 301 301 302 302 301 301 301 302 302 301
324 324 322 321 321 320 319 319 320 320 320 320 320 319 318 317 317 317 317 317 317 317 317 316 317 317 318 317 317 317 317 318 317 317 317 315 313 312 312 311 309 308 307 306 307 310 311 311 312 313 313 312 312 311 310 309 309 308 307 306 306 305 304 304 304 304 304 304 304 303 302 302 301 300 299 299 299 299 299 300 300 300 300 300 300 300 300
323 322 321 321 321 320 319 319 320 321 321 320 320 320 319 318 318 317 317 317 317 318 317 316 317 318 318 317 317 317 317 317 316 316 316 315 314 313 311 310 308 307 306 306 308 310 310 310 310 311 310 310 310 309 308 307 307 306 305 305 304 304 303 303 303 302 302 302 302 302 301 301 300 300 300 299 298 298 298 298 298 298 298 299 299 299 299
322 321 321 321 320 320 319 319 320 321 322 322 321 320 320 319 319 318 317 317 318 318 318 317 318 318 318 317 317 317 316 316 315 314 315 314 312 311 310 309 308 306 305 305 307 309 310 309 309 308 308 307 307 307 306 305 305 305 304 303 303 302 302 301 301 301 301 301 301 301 301 300 300 299 299 299 299 298 298 297 296 296 296 297 298 298 298
321 320 321 321 320 319 319 320 320 321 322 322 321 320 320 319 319 318 318 317 318 318 319 319 319 318 317 316 316 315 315 314 313 313 312 312 310 309 308 308 307 306 305 304 305 307 309 309 309 308 307 306 305 305 304 304 303 303 303 302 301 301 301 300 300 300 299 299 299 299 300 300 299 298 298 297 298 297 296 295 295 295 295 296 296 296 296
319 319 319 319 320 320 321 321 321 321 321 321 320 320 320 319 318 318 317 317 317 318 318 318 317 317 316 316 315 315 314 313 311 311 311 311 310 309 308 307 306 305 304 304 304 305 306 307 308 307 306 305 304 304 303 303 302 302 301 301 300 299 299 299 299 298 297 297 298 298 298 298 297 296 296 296 295 295 294 293 293 294 294 294 294 294 294
318 319 319 319 319 319 320 320 321 320 320 319 320 320 319 319 318 318 317 317 317 317 317 317 316 316 316 315 315 315 313 311 310 311 311 311 311 310 309 307 306 305 304 303 303 304 304 305 305 304 304 303 303 303 302 302 301 301 301 300 299 299 298 297 297 297 296 296 297 296 296 295 295 294 295 294 294 293 293 292 292 293 293 292 292 292 292
318 319 319 319 319 319 319 320 321 320 320 320 321 320 319 318 319 319 318 318 317 317 317 316 315 315 315 315 314 314 312 311 310 310 310 310 310 310 309 307 306 305 303 303 302 303 304 304 303 302 302 302 302 301 301 301 301 300 300 299 298 298 297 296 296 296 296 295 295 294 294 293 293 293 293 293 293 292 292 292 292 292 292 292 292 291 291
318 319 319 319 318 318 318 319 320 320 320 321 321 320 319 319 319 318 317 317 317 316 316 315 315 314 313 312 312 312 311 310 310 310 311 311 310 310 309 308 306 304 303 302 302 303 303 303 302 301 301 301 301 300 300 300 300 300 299 298 297 296 296 295 295 295 295 294 293 293 293 293 292 292 292 292 292 292 292 291 292 291 291 291 291 291 291
318 318 318 317 317 317 317 318 318 318 318 318 319 319 319 319 318 317 316 315 316 316 315 314 314 312 311 310 310 310 310 309 308 308 309 310 309 308 307 307 306 304 303 302 302 302 302 301 300 300 301 301 301 300 299 298 298 299 299 297 296 295 295 294 294 294 294 293 293 293 292 292 292 292 292 292 291 291 291 291 291 291 291 291 291 291 291
318 317 317 316 315 316 317 317 318 318 317 317 318 319 319 318 318 317 316 315 315 315 314 313 312 311 310 310 310 310 309 309 308 307 307 307 307 307 307 307 305 303 301 300 300 300 300 300 299 299 299 299 299 299 298 297 297 297 297 297 295 294 294 294 294 294 293 293 293 293 293 292 292 292 292 292 291 291 291 291 291 291 291 291 290 290 290
317 317 316 315 315 315 316 317 318 318 318 318 318 319 319 319 318 317 317 316 315 314 314 312 310 309 309 309 309 308 308 307 307 306 306 305 305 305 307 307 304 301 300 300 300 299 299 299 298 297 297 297 297 297 297 296 296 296 296 295 294 294 294 294 294 294 293 293 293 293 292 292 292 292 291 292 291 291 291 291 291 291 290 290 290 290 290
317 317 317 316 315 315 316 316 316 317 318 318 318 319 319 319 318 318 316 314 313 313 312 310 309 309 308 308 307 307 306 305 304 304 304 304 303 304 305 306 304 301 300 300 300 299 299 298 297 296 296 296 296 296 296 296 295 295 295 295 294 294 294 294 294 294 293 293 292 292 292 292 291 291 291 291 291 291 291 291 290 290 290 290 290 290 290
315 316 315 315 314 314 314 315 315 316 318 319 319 319 319 318 318 317 316 314 313 313 311 310 309 309 308 307 306 306 305 304 303 302 302 302 301 301 301 303 303 302 300 300 299 298 298 297 297 296 296 296 295 295 295 295 295 295 295 295 295 294 294 294 294 293 293 293 293 292 292 292 291 291 291 291 291 291 291 291 290 290 290 290 290 290 290
Wind_Speed
5 6 5 4 2 3 4 4 6 9 8 5 5 7 7 7 6 8 9 9 10 10 11 14 14 12 11 10 9 8 8 8 7 7 6 5 5 6 5 5 5 6 5 5 6 7 7 5 4 3 3 2 3 4 5 6 6 5 7 10 11 11 13 14 13 13 12 13 13 12 13 15 16 16 18 19 19 19 19 19 21 20 20 21 22 22 21
3 3 3 2 1 3 4 6 8 10 10 9 7 7 7 9 9 10 9 9 11 10 8 10 8 8 8 7 7 8 9 9 8 7 7 6 6 6 6 7 7 7 6 7 8 9 6 4 3 3 2 1 1 4 6 5 4 6 8 10 10 11 13 13 12 12 12 12 13 13 14 17 18 17 19 20 20 20 21 21 21 20 20 21 21 21 21
5 5 3 3 3 3 4 7 8 9 9 8 6 5 5 7 8 8 5 5 8 7 4 4 6 9 9 8 9 8 8 8 8 7 7 7 7 7 7 8 8 7 7 7 9 9 7 5 4 2 1 1 1 4 6 5 5 6 8 10 11 12 13 12 10 11 12 12 13 15 16 18 18 18 20 21 19 19 21 22 22 21 21 21 20 19 19
4 5 4 5 6 6 5 6 6 7 7 5 5 5 3 5 5 2 2 3 6 4 2 6 8 10 11 10 9 7 7 7 8 8 8 7 8 9 9 9 8 7 6 6 8 9 8 7 5 2 2 2 3 5 6 7 6 7 8 9 11 13 12 10 9 11 12 13 14 16 16 17 18 18 20 20 20 20 21 21 22 22 21 20 18 18 19
4 5 1 2 4 5 5 6 4 5 6 6 7 5 1 3 3 5 4 5 5 4 7 9 9 10 10 9 8 8 8 8 8 9 9 8 9 10 9 9 8 7 7 9 11 10 9 7 5 4 4 4 5 6 6 7 6 6 8 9 10 11 10 9 9 10 12 14 15 16 16 17 18 19 19 20 22 22 22 21 21 21 20 19 17 16 18
4 6 2 3 3 3 6 7 4 4 5 7 9 6 5 5 3 5 4 4 6 7 8 11 11 10 9 9 8 8 9 9 8 9 9 9 9 9 8 8 7 7 9 12 12 10 9 8 6 5 5 5 6 7 7 6 6 7 7 8 9 10 9 8 9 11 13 15 16 17 17 17 18 19 19 21 22 22 22 22 21 19 19 18 16 15 17
3 3 4 2 5 6 7 7 6 7 7 7 8 6 4 4 4 8 8 8 9 7 7 9 9 9 8 8 8 8 9 10 9 9 9 8 8 8 7 7 7 9 12 13 13 11 10 9 7 6 7 7 7 8 8 8 8 8 8 8 10 11 10 11 12 12 14 16 17 19 19 18 18 19 20 21 23 22 21 21 19 16 16 16 14 14 15
2 1 2 4 7 6 6 8 8 7 6 4 4 3 4 5 3 9 11 8 7 7 6 6 7 7 6 6 6 7 9 9 10 10 9 8 8 8 9 10 10 13 15 15 14 13 11 10 9 9 9 9 8 9 10 10 10 9 9 10 12 12 11 13 14 15 15 16 19 21 21 19 19 20 20 20 21 21 20 20 17 12 12 13 12 13 14
3 3 3 3 4 6 6 7 7 4 3 4 5 3 2 6 4 5 11 9 7 7 8 7 6 6 6 3 4 6 7 8 9 9 9 9 9 10 12 14 15 16 17 16 15 13 11 11 11 11 11 10 10 10 10 11 12 11 11 11 11 11 12 13 15 16 17 19 21 22 22 20 20 20 19 18 18 20 19 19 16 11 9 10 11 11 13
3 4 2 2 3 5 6 8 8 5 5 5 5 5 1 6 7 2 10 11 9 8 8 7 6 6 6 3 5 6 7 8 8 8 7 9 12 13 15 15 15 16 17 16 14 12 11 11 12 11 10 11 12 12 11 11 12 12 12 11 11 12 12 13 15 16 19 21 22 22 20 19 18 18 17 16 17 18 18 19 17 12 8 9 10 10 12
3 5 3 3 4 5 7 9 8 7 5 3 6 5 3 5 5 1 8 11 10 10 9 8 7 6 4 5 6 6 9 9 7 6 5 7 12 15 17 16 16 17 18 15 13 11 10 10 11 12 12 12 13 14 13 11 11 12 12 11 11 11 11 12 13 15 18 21 20 18 16 16 15 15 16 16 16 18 19 20 19 12 8 8 9 10 12
4 5 4 3 3 5 7 7 6 6 3 4 6 1 7 6 3 1 7 10 9 9 8 6 6 6 5 5 5 6 7 4 4 7 8 9 12 14 14 15 16 17 17 14 12 12 12 11 11 12 12 13 14 14 12 10 10 12 12 12 12 11 10 11 13 14 16 17 15 13 13 14 14 14 15 17 17 19 21 19 16 13 8 8 9 10 10
6 6 4 3 3 5 6 5 3 4 1 4 3 6 6 4 3 3 7 8 7 7 7 5 4 5 6 5 3 3 6 5 5 9 13 14 15 15 15 16 16 17 15 13 14 14 14 13 11 11 12 13 13 13 11 11 12 12 12 12 13 12 11 11 12 12 12 12 12 10 11 12 13 13 15 18 19 20 20 17 14 14 10 6 8 11 10
4 5 4 2 4 5 6 4 2 3 1 3 6 6 4 4 6 6 6 6 6 6 6 5 5 4 4 4 4 5 6 7 8 10 12 11 11 13 15 16 16 15 13 12 14 15 15 13 12 11 12 13 14 13 13 13 13 13 12 13 12 10 10 10 11 10 9 11 12 11 11 12 13 15 16 18 20 19 16 14 13 13 12 9 7 9 9
3 3 3 2 4 6 5 3 2 3 2 6 5 3 3 4 6 6 5 5 6 6 4 4 4 5 4 4 5 6 7 8 8 9 9 9 10 13 15 16 16 15 13 13 14 16 15 13 12 12 14 15 14 13 13 12 12 12 13 13 12 11 11 11 9 8 9 10 12 12 12 12 13 15 15 16 18 15 11 11 12 12 11 11 11 11 9
4 4 5 5 5 6 5 5 3 3 5 6 6 6 5 4 4 5 4 3 4 6 7 5 5 5 5 4 5 6 7 7 7 7 8 11 14 16 17 18 17 16 15 16 16 16 15 13 13 14 14 14 14 13 12 11 10 10 12 13 12 11 11 10 8 8 10 10 11 11 10 9 10 12 13 14 16 14 10 10 11 11 11 11 11 12 10
4 5 6 5 4 5 4 4 5 7 6 5 6 7 5 3 4 4 4 4 5 5 7 5 3 3 4 4 4 6 7 7 8 8 11 15 18 19 19 20 19 17 17 18 17 15 15 14 14 14 14 14 15 13 12 12 12 12 13 13 12 10 9 8 8 10 10 7 7 8 8 8 9 11 12 13 14 14 14 12 10 10 11 10 9 9 9
3 2 2 3 2 2 3 3 4 5 5 4 4 5 5 4 4 4 5 6 5 5 6 5 3 4 4 4 5 5 5 6 7 9 12 16 18 19 18 18 18 18 18 18 17 16 15 15 14 14 14 14 15 15 14 13 14 14 12 10 9 9 8 8 9 8 5 2 3 6 8 8 10 11 12 14 14 16 17 15 12 12 12 11 8 8 8
3 2 2 1 1 2 1 3 5 5 4 2 2 4 4 2 2 4 5 6 5 4 4 5 4 5 4 3 5 4 3 6 6 7 9 12 14 15 15 16 18 18 17 17 17 17 16 14 13 13 13 13 14 15 13 11 13 15 12 7 8 8 7 6 6 3 2 1 2 6 8 9 10 12 13 13 14 16 18 18 16 16 15 13 10 8 8
3 4 3 2 7 8 6 5 5 6 7 7 5 5 5 5 5 5 4 5 5 3 2 2 0 3 3 3 6 5 4 6 6 6 8 11 13 13 15 16 18 19 18 18 17 16 14 13 12 11 12 11 12 12 9 8 11 11 6 6 9 9 5 4 2 2 1 2 3 6 8 9 12 13 12 12 14 15 17 19 19 18 17 16 13 10 9
1 0 2 5 8 8 7 6 5 4 6 7 6 5 6 6 6 6 5 4 5 5 4 3 2 2 3 3 3 3 5 5 5 6 9 12 13 14 16 18 20 21 21 20 17 14 14 14 12 10 10 10 11 8 4 5 7 3 3 7 10 9 5 4 2 1 1 2 3 6 9 11 12 13 11 11 13 14 16 18 20 20 19 18 15 12 11
2 2 3 3 4 3 1 1 3 4 5 7 7 6 7 6 6 6 6 4 4 6 5 5 6 5 2 3 0 4 5 6 8 10 12 13 14 15 17 18 20 21 21 18 16 14 16 15 12 10 10 10 8 6 4 4 4 4 5 6 9 10 8 7 4 2 2 2 4 7 10 11 12 13 12 12 13 13 14 17 19 19 19 19 16 14 13
4 7 7 5 5 4 5 5 5 6 5 6 7 6 6 6 5 5 6 5 5 6 6 6 8 7 3 1 2 4 4 6 10 12 14 15 15 15 17 18 18 19 18 16 15 16 17 16 13 12 12 9 8 8 7 5 5 6 5 5 7 8 8 7 5 3 4 4 5 8 10 11 12 12 14 17 17 14 13 15 17 17 18 19 19 16 13
4 5 6 6 6 5 6 7 6 6 5 7 7 6 6 6 5 5 5 5 6 6 5 5 6 7 4 3 4 5 5 7 10 11 13 15 15 15 17 17 17 17 16 15 16 18 18 16 14 13 12 10 9 10 10 9 7 7 6 6 6 5 5 5 4 5 6 7 8 9 11 12 11 11 14 17 18 17 15 14 15 16 16 18 20 19 15
3 4 6 6 6 7 7 5 4 5 6 7 6 5 6 6 5 5 5 4 5 7 6 3 3 5 5 4 5 7 7 7 8 9 10 10 10 10 12 13 14 14 14 15 16 17 17 16 15 14 13 12 12 12 12 11 9 8 7 7 6 5 5 5 6 6 8 9 11 12 12 11 10 11 14 15 16 17 17 16 15 16 16 17 17 19 18
6 6 4 3 4 5 5 4 4 4 5 7 7 5 6 7 8 8 7 6 7 9 8 6 4 4 4 4 5 7 7 6 5 5 5 5 6 7 9 10 10 10 11 13 14 15 16 18 17 15 14 14 14 13 12 10 10 10 10 9 8 8 8 7 6 7 7 8 9 10 11 9 8 11 14 15 15 14 13 14 16 17 16 16 17 19 20
8 8 6 5 3 2 3 4 5 5 5 7 7 6 7 10 12 11 10 9 9 10 9 8 7 5 3 4 5 6 7 7 6 5 5 5 6 8 8 8 7 7 9 11 13 15 16 16 15 13 13 13 13 12 12 12 12 13 12 10 9 9 8 7 7 7 5 4 5 6 7 7 8 11 13 14 15 13 10 11 14 15 15 15 17 19 21
6 7 6 5 6 6 5 5 6 6 5 6 7 7 7 8 9 9 7 6 7 8 8 7 6 4 3 4 6 7 7 7 7 7 7 8 8 7 7 6 5 6 8 10 11 10 8 8 8 8 8 8 8 9 10 11 11 11 10 9 8 7 6 5 5 4 2 2 3 4 5 7 8 10 11 13 13 12 11 12 13 14 14 15 16 17 19
4 3 3 3 6 7 6 5 6 7 6 5 6 6 7 7 7 7 5 3 3 4 4 3 2 1 1 3 6 7 7 7 8 8 9 9 9 8 7 7 6 6 6 6 5 2 1 3 5 5 4 4 4 5 7 7 7 6 5 5 5 5 4 4 4 2 1 3 5 7 8 9 9 10 12 14 15 15 15 16 16 16 16 18 19 20 20
4 6 7 6 6 7 7 6 6 6 6 6 7 7 7 8 8 6 5 4 3 2 1 1 2 1 2 5 8 8 7 7 8 9 9 9 10 10 8 6 7 7 7 6 4 3 2 1 4 3 1 1 2 2 1 2 3 3 3 3 4 5 6 6 5 4 6 9 11 11 11 11 12 12 14 15 17 17 18 18 18 18 19 21 22 23 23
7 9 9 8 7 8 7 6 6 6 6 7 9 8 8 8 8 6 5 5 4 4 4 3 2 3 6 8 7 5 4 5 6 7 7 8 9 10 8 8 10 10 9 8 7 6 5 5 6 5 4 6 9 10 11 10 8 9 8 5 3 5 8 9 9 11 13 15 15 14 14 14 14 14 15 16 16 17 18 19 19 19 19 20 21 24 25
9 9 9 8 7 8 7 5 6 7 7 8 9 8 6 7 7 6 5 4 4 5 5 5 5 6 8 9 6 3 4 4 5 5 5 4 4 5 6 10 14 14 13 12 10 8 5 4 8 8 7 6 7 8 9 9 9 11 12 10 9 9 11 14 17 18 19 19 18 17 17 17 17 17 17 17 17 17 18 19 18 18 18 19 20 24 26
10 7 6 7 7 7 7 6 7 8 8 8 8 6 5 5 6 5 4 5 5 5 6 6 7 9 7 3 1 4 5 6 5 4 5 6 6 7 9 12 15 15 12 9 7 7 5 1 3 4 7 8 8 7 4 2 3 5 8 11 14 15 17 19 21 21 21 21 19 19 19 19 19 19 19 18 18 17 18 17 16 16 16 16 18 22 25
11 9 9 9 8 8 8 8 8 8 8 7 6 6 5 6 6 6 6 7 6 6 7 8 10 12 12 10 7 7 7 6 5 6 8 9 8 8 10 11 12 12 10 7 6 6 5 2 1 2 9 12 12 12 10 8 9 13 16 19 21 22 22 23 23 22 22 22 20 20 21 20 18 18 17 16 16 15 15 15 14 13 14 14 15 18 21
8 8 8 7 7 8 9 9 8 8 8 7 6 6 6 7 8 8 9 8 7 8 10 11 12 13 13 12 10 8 7 6 5 6 7 8 8 9 11 12 12 12 12 12 12 12 11 9 6 7 13 16 15 15 16 17 20 23 24 25 25 25 25 25 25 23 22 21 20 21 20 18 16 15 14 14 14 13 13 14 14 13 13 13 13 15 19
10 10 8 8 9 9 9 8 7 7 7 7 6 6 7 9 10 10 10 10 10 10 10 11 12 13 12 10 8 7 6 6 7 8 8 8 8 10 12 13 13 12 13 14 14 13 12 12 12 14 17 19 19 20 21 22 25 26 26 26 27 27 26 26 25 24 23 21 20 20 18 17 15 14 13 13 13 13 13 13 13 12 12 12 12 14 17
11 11 8 7 9 10 9 9 10 11 9 8 7 6 8 10 12 12 12 11 10 9 9 10 11 11 9 7 7 7 6 7 10 12 12 12 12 13 13 13 14 13 12 12 12 11 10 12 14 16 20 21 21 21 22 23 25 26 26 26 26 26 25 25 24 23 23 21 20 19 19 19 19 17 16 15 14 13 12 12 12 12 12 12 12 13 15
12 12 11 10 11 12 11 12 14 15 12 9 7 8 10 13 15 14 13 11 9 8 9 9 10 9 7 7 7 8 7 7 9 12 13 14 15 16 15 13 13 13 12 11 11 12 12 12 14 17 20 21 21 21 21 22 23 24 24 25 25 25 24 24 23 22 21 21 21 21 21 21 21 21 20 19 17 15 13 13 12 12 12 12 12 13 15
10 10 11 12 13 12 12 13 13 13 13 11 9 10 13 15 16 14 12 10 8 8 9 9 9 9 8 7 7 8 8 8 9 11 13 15 19 20 18 15 14 13 12 11 12 14 14 14 15 18 20 21 20 20 20 21 22 23 24 25 25 25 24 23 22 21 19 18 18 19 18 19 19 20 20 20 19 18 16 15 13 13 12 13 13 14 14
7 7 9 10 10 11 11 11 11 12 14 16 15 14 15 16 15 13 11 10 9 9 9 10 10 9 8 8 8 9 10 10 11 12 15 18 20 20 17 15 13 12 12 14 16 17 17 18 20 21 21 20 20 20 21 21 22 24 25 25 25 25 24 23 22 21 19 18 17 17 16 16 17 17 18 19 20 19 18 17 16 15 14 13 14 14 15
7 8 9 10 10 10 11 10 10 11 14 16 16 15 15 15 14 13 11 10 10 9 9 10 10 10 10 11 11 11 12 12 13 13 14 16 16 15 12 10 11 11 13 16 18 19 20 21 22 22 21 20 19 20 21 22 23 24 25 25 25 24 23 22 21 19 18 17 17 17 16 16 16 16 16 17 17 18 18 17 16 15 14 13 12 13 13
8 9 10 9 9 10 11 11 11 11 12 13 13 13 12 12 12 12 11 11 12 10 9 9 11 12 13 13 13 13 14 14 15 15 15 14 14 14 11 9 10 11 13 16 18 20 21 20 20 20 20 20 20 20 22 23 24 24 24 24 23 23 22 21 20 18 16 16 16 15 14 14 14 14 13 13 13 13 15 16 17 17 15 13 11 12 13
9 9 8 7 8 10 12 12 12 11 10 10 11 11 12 12 13 14 14 13 13 12 11 11 12 13 14 14 14 14 13 14 16 17 17 15 15 16 15 13 11 12 14 16 18 19 20 20 19 18 19 19 20 21 22 23 24 24 23 23 22 21 20 19 17 16 14 14 13 12 12 12 12 12 12 13 13 13 13 16 18 19 18 16 15 15 15
10 10 9 8 10 11 12 12 11 10 8 8 10 11 13 13 13 14 15 14 13 12 13 13 13 13 14 15 14 13 13 14 17 18 17 14 13 14 15 14 13 14 15 16 17 18 18 18 17 16 16 17 17 19 20 22 22 22 22 21 20 19 18 17 15 15 14 14 13 13 13 13 13 12 13 15 16 15 15 17 19 19 19 18 18 18 18
9 10 10 11 12 12 12 11 10 10 10 11 11 11 12 12 12 13 14 13 13 12 13 13 14 14 14 14 14 13 13 14 15 16 14 10 9 10 12 13 13 14 14 14 15 16 16 16 15 14 14 15 15 16 18 18 18 18 18 17 16 16 16 15 14 13 15 16 17 17 17 16 15 15 16 17 16 16 16 17 18 18 17 17 17 17 17
9 11 12 12 11 11 10 11 12 13 14 13 11 10 11 12 12 11 11 12 12 12 12 13 14 14 14 15 15 15 14 12 12 12 12 12 12 13 13 13 13 13 13 12 13 14 15 14 13 13 13 14 14 15 16 15 15 15 14 14 12 13 14 14 13 12 14 16 17 17 17 16 16 17 17 16 15 15 15 15 15 16 15 15 15 15 16
9 10 10 10 9 10 11 12 14 14 12 8 7 8 10 11 11 11 11 11 12 13 13 13 13 13 13 15 16 17 17 15 12 11 14 16 15 13 12 12 12 12 13 13 13 14 15 15 13 12 12 12 13 13 13 12 12 12 11 11 11 12 14 16 16 15 16 16 16 16 16 16 15 16 15 15 15 14 14 13 14 14 14 13 13 13 14
10 9 9 10 10 11 12 13 12 10 7 7 8 10 11 11 11 12 12 12 13 14 15 14 13 12 12 13 14 16 18 17 13 10 12 13 12 9 9 10 11 12 13 14 15 14 14 14 13 12 12 12 11 11 10 10 9 9 9 9 11 12 14 15 15 15 15 15 14 14 14 14 14 13 13 14 13 13 12 12 12 12 12 12 12 12 12
10 10 10 10 10 11 11 11 9 7 7 8 10 12 12 12 12 12 13 13 15 15 15 14 13 12 12 12 13 13 14 13 11 10 10 9 8 8 10 12 12 11 12 14 14 13 12 11 11 11 11 11 10 9 9 9 9 9 9 10 11 12 13 13 14 14 14 13 12 12 11 11 11 10 11 11 10 10 10 10 10 10 10 9 9 9 9
9 9 8 7 7 8 8 6 6 7 9 10 11 13 15 14 12 11 11 13 15 14 14 14 14 15 15 15 14 13 12 11 11 12 10 8 7 8 10 12 13 13 13 13 13 11 10 10 10 10 9 9 9 9 9 9 10 11 11 11 11 11 12 13 13 13 12 11 11 10 10 9 9 9 9 9 9 8 8 8 8 8 7 7 7 7 7
7 7 6 5 5 4 3 1 3 7 9 11 13 14 15 14 12 11 13 15 16 15 13 13 13 14 15 16 15 14 14 13 13 12 11 9 9 9 9 11 14 15 13 12 10 9 9 9 10 9 9 10 10 9 8 8 9 11 12 12 11 10 9 10 10 10 10 10 10 9 9 9 8 7 7 7 6 6 6 5 5 6 6 6 7 7 8
8 8 9 9 9 10 10 8 5 5 9 11 13 14 14 14 13 13 13 14 15 14 13 12 10 10 12 14 13 13 13 14 13 13 13 13 13 13 12 13 15 16 14 12 11 10 9 9 9 8 8 10 10 10 9 8 9 10 10 10 9 8 8 8 8 8 8 8 7 7 7 7 6 5 5 5 4 4 3 3 3 4 5 6 6 7 8
Wind_Direction
225 197 223 252 228 236 254 265 267 270 273 245 198 215 211 158 166 241 235 193 201 226 221 212 203 182 174 172 159 151 151 156 164 164 163 155 132 129 142 158 174 176 176 177 166 162 160 147 128 106 71 38 12 351 338 334 332 329 331 334 333 330 335 340 341 338 334 332 338 345 348 343 334 325 323 325 326 324 321 317 314 314 323 332 337 340 342
285 265 274 276 272 294 292 292 285 272 259 242 220 219 202 179 203 233 221 203 218 229 226 219 193 157 153 147 138 145 152 159 165 161 156 148 140 147 160 174 188 189 189 185 171 163 159 148 131 107 75 60 12 349 344 331 312 312 321 328 330 326 330 338 340 336 331 325 329 340 346 346 342 333 327 324 323 324 324 321 317 317 323 329 335 341 343
308 302 324 338 351 342 301 296 295 281 266 253 245 246 213 196 225 242 222 214 243 256 236 182 147 136 138 138 143 153 159 163 163 158 157 156 160 175 185 191 201 199 187 177 166 159 155 156 147 122 118 186 301 337 339 322 306 311 311 316 326 323 323 336 341 337 332 323 323 331 337 340 343 341 334 329 326 324 324 322 319 320 321 324 332 342 345
275 291 342 339 350 1 319 296 285 279 282 272 265 272 246 227 230 190 134 214 251 260 106 113 127 134 136 141 148 152 162 167 159 159 167 172 177 187 195 200 202 191 177 168 162 158 161 168 168 165 188 215 282 311 323 320 309 308 306 311 323 321 319 329 339 340 336 327 324 329 332 336 339 338 334 331 329 325 323 322 320 319 320 322 330 341 346
260 281 348 11 12 6 306 266 237 267 291 285 286 304 277 225 164 134 174 222 216 180 127 118 127 136 142 154 160 160 167 169 165 169 178 185 188 191 197 201 196 182 171 163 162 167 177 186 191 193 201 237 276 284 303 315 305 302 309 317 325 322 315 319 335 346 342 334 332 332 332 335 337 336 333 331 330 328 324 321 319 318 320 322 328 341 350
257 285 22 53 5 321 258 240 219 251 272 270 274 262 203 202 161 135 160 164 153 159 149 143 152 161 160 164 169 165 163 165 173 183 187 190 193 196 199 198 188 175 168 166 170 180 191 195 198 205 221 249 269 268 274 288 293 300 309 319 326 322 315 321 336 344 342 338 337 335 334 335 335 336 334 330 330 329 326 323 319 315 318 321 327 341 351
214 304 41 23 266 243 244 266 275 269 263 255 250 238 221 228 174 129 124 141 155 162 160 156 160 165 161 160 169 175 174 173 175 183 192 193 188 192 197 191 181 172 168 170 177 186 194 199 203 216 232 245 257 259 257 264 277 287 294 307 315 312 315 328 337 340 340 338 335 333 333 333 333 335 333 330 332 334 332 330 324 313 314 321 327 341 352
173 88 103 215 244 256 287 300 294 284 284 266 233 251 321 306 209 144 133 146 160 151 151 158 154 150 147 151 180 196 192 184 175 175 186 188 182 187 186 177 176 177 177 180 185 188 197 207 215 229 240 242 245 252 253 257 265 273 283 299 308 309 314 326 332 334 333 331 329 330 330 328 328 333 336 335 339 343 342 339 332 314 313 325 332 344 354
169 163 197 238 281 303 309 293 278 277 278 242 202 183 327 318 290 152 137 142 155 150 146 152 148 123 104 118 231 229 207 198 190 181 182 183 180 182 179 176 178 182 184 186 187 191 203 216 227 237 241 238 236 242 252 256 259 265 275 288 299 305 310 320 327 329 326 325 326 327 327 326 326 332 338 339 344 349 351 348 337 314 305 327 337 349 358
148 147 228 300 291 278 263 253 261 272 251 220 153 112 1 313 311 206 146 145 150 147 142 150 146 114 108 164 245 236 208 206 201 188 182 177 172 173 175 177 178 182 186 186 187 195 209 224 236 240 238 234 233 237 248 255 257 263 269 280 296 303 306 313 323 328 327 326 328 330 330 330 331 336 341 342 344 351 356 354 344 321 295 317 338 351 2
145 154 204 223 215 242 242 241 264 279 251 186 96 70 306 292 310 339 142 145 148 150 154 157 143 129 158 221 249 226 208 208 195 180 173 168 172 176 178 180 182 183 185 185 186 195 211 225 233 233 230 231 233 239 248 256 261 263 263 274 292 299 300 307 318 326 328 328 333 338 340 339 338 340 344 345 346 352 355 354 353 338 298 299 332 350 0
176 170 201 220 220 248 238 230 257 273 259 83 82 248 261 259 273 87 130 145 155 156 155 151 144 154 185 224 247 216 190 179 166 167 168 171 178 182 182 186 188 184 181 181 183 192 209 221 223 222 222 225 230 238 247 252 255 259 265 275 284 288 296 307 316 321 326 333 341 345 345 344 341 342 345 346 346 349 350 353 5 7 330 297 315 336 352
176 175 202 244 250 251 238 231 277 292 340 77 133 218 233 217 201 156 127 140 160 161 155 157 174 197 208 219 224 159 136 139 168 177 180 182 183 182 183 185 183 178 180 186 191 200 213 222 222 221 222 225 232 240 244 245 249 259 272 278 278 285 299 308 312 318 329 344 348 343 342 345 344 342 344 344 341 341 342 349 10 24 16 336 315 321 334
173 171 189 248 270 253 225 210 332 359 133 199 220 220 200 157 158 151 130 139 157 161 166 181 194 205 208 183 141 134 151 169 181 184 181 175 170 173 177 177 175 174 179 188 198 208 216 218 218 220 224 231 241 246 245 250 259 268 276 276 272 283 300 302 306 321 338 349 351 347 343 344 343 342 343 345 345 342 340 347 1 15 27 29 5 343 337
155 157 178 213 255 252 216 158 27 23 155 203 212 180 174 176 159 142 131 149 161 154 163 201 196 169 166 158 147 162 179 177 176 179 172 159 157 164 168 173 178 180 181 189 201 209 210 208 211 218 225 234 243 245 249 265 279 274 270 272 270 278 292 296 307 331 339 340 347 348 343 340 345 350 350 353 357 356 349 348 349 357 16 27 25 18 7
145 167 206 210 214 220 187 141 154 201 190 190 174 155 174 202 174 139 125 162 184 159 152 178 186 170 180 189 173 175 186 183 176 173 164 160 164 168 173 181 187 187 187 192 201 207 207 208 215 223 231 237 242 247 261 287 300 285 276 276 272 274 286 295 314 338 333 330 342 351 353 356 2 6 4 2 4 4 354 342 341 350 5 13 14 17 13
171 177 206 212 198 198 181 151 175 192 185 174 161 148 151 192 195 158 139 166 188 163 146 151 168 191 215 221 199 186 186 184 178 174 173 170 170 174 181 186 189 193 196 196 199 205 208 212 221 230 237 241 245 255 275 297 306 298 290 283 270 263 274 295 321 336 336 337 353 4 13 16 11 7 3 359 360 360 352 342 334 340 352 0 5 5 0
219 183 181 190 176 178 174 147 147 163 168 177 167 138 135 189 204 165 146 158 165 155 140 137 173 225 231 239 246 223 186 174 173 171 173 176 177 179 180 182 190 199 200 196 197 202 211 223 234 240 243 246 250 262 280 300 314 312 298 278 255 244 258 298 328 345 356 17 19 11 14 13 5 359 355 351 353 358 358 354 341 330 334 343 350 349 347
180 216 284 277 42 26 73 89 74 73 81 92 120 119 124 161 160 136 141 147 147 147 140 143 194 238 231 230 261 261 187 170 174 169 170 179 186 188 185 188 195 197 192 191 198 208 223 237 244 243 245 251 261 274 287 307 323 319 302 264 224 221 252 307 341 24 58 34 343 0 8 9 3 0 359 357 358 2 5 3 352 337 330 333 335 333 333
168 215 259 67 59 37 30 50 64 77 83 79 81 98 104 96 93 103 117 119 115 97 67 94 215 294 291 247 253 252 195 171 173 177 179 181 187 194 197 199 198 194 193 199 207 219 238 251 251 247 248 258 275 285 295 315 321 317 296 219 204 210 244 309 345 105 88 322 324 352 3 2 358 359 4 7 6 7 9 6 358 347 334 327 326 326 322
19 194 111 86 66 41 27 36 53 90 105 99 97 101 95 89 89 85 75 77 92 90 77 91 101 38 342 293 240 180 159 154 157 170 180 183 186 192 196 199 199 198 202 209 214 229 248 253 250 249 250 265 282 283 289 317 315 301 175 192 208 212 233 285 289 202 240 300 334 354 358 355 351 353 357 359 359 3 6 5 2 358 348 334 323 318 313
353 224 182 145 103 96 163 119 112 136 127 109 103 90 78 85 104 107 96 76 73 83 89 107 119 107 32 337 171 157 163 167 166 169 174 178 184 189 193 197 202 205 209 215 223 238 249 248 246 251 253 260 269 260 262 299 279 219 201 220 221 218 238 272 285 242 233 288 339 347 349 345 341 341 343 345 349 357 0 358 360 4 4 357 343 322 303
219 224 212 183 136 148 201 197 170 176 157 110 103 94 89 107 138 135 116 91 67 68 69 84 110 119 104 55 138 163 183 185 177 174 176 178 182 188 192 196 202 209 216 225 234 241 244 244 246 253 255 255 258 258 265 275 249 221 221 231 227 230 248 270 288 264 245 280 319 331 337 336 331 331 336 340 345 351 356 355 358 5 12 12 8 354 321
203 220 204 175 137 151 195 202 185 180 155 112 104 94 91 111 139 137 114 92 89 100 94 82 104 120 121 130 157 169 186 193 187 182 184 187 189 193 199 202 208 214 220 228 234 238 243 248 253 260 262 264 267 268 270 269 257 245 239 238 242 247 248 261 282 264 249 269 297 312 324 325 324 330 338 340 342 345 349 353 360 9 16 15 14 13 3
160 203 194 173 153 162 179 183 154 139 126 113 105 94 90 100 105 95 82 76 99 120 125 116 114 120 119 139 182 190 189 190 190 190 196 203 206 210 213 216 219 222 226 232 237 243 250 257 264 271 275 277 278 276 271 266 262 259 254 252 254 254 252 269 280 265 257 273 292 305 313 316 322 336 343 343 340 339 343 348 356 10 22 24 20 19 20
153 177 175 126 122 154 151 101 85 108 118 112 108 105 108 107 96 86 93 114 127 129 131 137 142 131 121 131 169 183 175 162 165 180 193 210 228 235 234 234 239 245 249 253 256 262 270 276 278 279 280 283 286 281 269 260 261 265 267 268 266 264 268 274 273 264 266 281 293 303 309 315 331 346 349 348 344 340 343 352 359 8 20 26 26 27 27
158 157 134 85 76 181 182 147 147 152 125 108 109 115 116 110 102 96 102 117 126 129 134 141 138 129 121 119 130 148 154 152 158 174 185 199 221 235 240 247 259 271 278 278 276 278 282 283 278 272 273 281 286 279 266 260 264 270 271 268 264 263 264 259 250 251 265 292 314 321 326 339 354 357 357 356 353 349 354 8 14 18 23 23 22 24 25
184 171 156 152 174 192 195 168 149 135 118 113 120 123 116 102 89 85 93 113 130 135 139 144 141 139 153 155 142 142 153 165 178 191 204 215 223 229 235 244 260 278 285 283 279 279 289 289 273 261 264 274 280 275 264 258 260 264 264 263 266 271 264 244 235 242 284 4 21 24 26 28 22 15 15 18 17 13 20 33 37 35 30 25 20 19 21
199 174 109 121 153 151 135 119 115 111 112 111 101 94 92 84 71 64 69 97 137 137 131 144 159 149 162 187 182 173 170 179 192 203 216 224 226 229 239 245 243 243 243 239 235 234 349 329 303 282 260 262 274 266 251 246 253 258 250 242 252 257 236 209 199 189 111 95 90 78 64 56 51 45 43 42 40 39 42 47 48 43 35 30 26 22 20
108 96 85 86 101 104 101 100 95 84 82 82 74 67 72 81 80 69 57 58 64 66 57 273 264 282 257 233 223 213 203 202 206 210 221 230 233 237 240 219 184 167 159 155 145 120 124 233 272 269 228 25 359 339 271 234 217 202 191 189 190 179 164 157 155 137 114 103 92 83 75 69 64 61 57 51 49 51 53 53 51 46 39 34 30 24 17
102 101 105 105 99 95 98 97 85 74 71 76 78 74 72 78 81 74 56 48 46 42 34 16 344 300 270 256 246 231 220 218 214 215 224 233 234 236 227 191 156 132 115 107 91 67 45 2 334 336 26 56 59 53 41 41 68 87 80 69 97 132 130 123 117 110 104 98 92 86 82 77 71 68 64 59 57 59 60 58 55 50 43 37 32 25 20
111 104 108 111 107 106 107 100 92 89 86 83 83 80 76 81 84 74 58 53 52 48 43 35 15 337 302 283 269 233 203 196 193 193 192 189 188 183 167 150 134 122 117 121 122 115 91 12 341 340 358 27 55 55 33 21 42 66 69 70 81 97 105 105 103 102 99 95 91 86 82 77 73 71 68 65 66 68 64 61 58 53 47 42 33 27 26
126 128 138 141 132 123 120 114 106 103 100 96 96 95 90 90 89 80 78 83 75 58 49 39 29 21 10 352 206 162 149 139 131 119 99 83 79 94 113 119 118 117 121 128 134 138 145 186 305 348 24 38 53 66 58 359 15 70 95 103 101 98 97 98 98 96 92 87 83 81 79 75 71 69 67 67 68 68 65 62 58 52 46 41 33 28 30
154 163 168 162 150 137 133 128 119 116 116 113 112 112 105 94 91 91 90 84 72 63 63 56 48 51 60 70 84 102 112 109 90 70 68 67 70 89 107 113 110 105 99 86 73 76 83 91 268 38 54 59 65 74 85 102 109 107 108 105 99 92 89 88 88 87 84 80 79 78 77 73 69 66 65 64 63 61 59 58 55 50 44 36 28 26 28
140 134 135 136 130 124 125 126 126 130 131 125 121 120 112 103 102 102 96 89 85 85 81 72 66 67 71 72 73 80 86 82 72 71 76 80 93 112 119 114 105 97 86 73 68 72 75 74 69 61 58 62 74 87 97 104 106 105 103 99 94 89 86 84 84 83 81 78 75 73 70 69 68 66 64 62 59 57 55 53 52 50 46 37 28 25 27
111 110 110 111 108 107 112 118 123 127 126 120 119 119 108 102 104 105 102 99 100 100 95 89 84 78 71 66 71 82 92 95 95 95 95 99 111 122 120 109 97 86 71 58 56 61 63 56 54 62 68 74 85 97 102 104 103 100 98 96 92 89 86 84 83 82 80 77 74 70 67 67 68 65 63 63 59 55 53 52 50 49 47 42 37 32 29
111 113 112 110 107 105 106 111 114 115 111 110 115 118 111 106 108 110 111 111 113 116 115 108 99 88 77 74 85 96 107 116 116 115 120 125 125 117 105 95 89 80 62 45 42 48 50 44 49 67 79 85 91 96 100 103 103 101 98 96 93 89 86 84 81 78 77 75 73 70 67 66 65 63 62 63 61 57 54 52 50 49 48 45 44 42 36
107 106 105 103 101 103 106 111 114 114 111 109 110 113 118 121 122 121 121 122 127 130 125 117 109 101 94 93 95 92 90 102 115 121 124 125 118 104 89 80 79 73 61 51 52 57 54 47 55 74 88 94 95 97 100 102 102 100 98 96 93 89 87 85 82 79 77 75 74 72 69 66 66 64 62 61 61 59 57 57 55 53 50 46 45 45 42
100 98 97 95 96 97 99 99 101 106 117 125 119 109 116 126 130 129 127 131 141 142 133 125 119 110 99 96 93 87 83 90 106 111 107 102 100 95 86 80 79 78 73 70 66 60 55 58 71 87 98 101 98 97 99 101 102 100 98 96 93 91 89 88 86 84 83 81 79 78 74 71 69 66 64 64 64 63 62 62 59 54 50 47 46 46 45
100 98 93 91 89 88 89 90 93 103 117 124 120 116 123 133 137 135 133 138 151 157 149 137 123 107 95 94 92 87 89 95 100 102 101 98 97 93 85 79 80 82 81 78 72 65 64 74 84 92 98 100 98 98 100 102 103 101 98 97 95 94 92 91 90 90 90 90 91 90 87 82 78 75 72 71 69 68 66 64 61 58 55 52 51 50 50
101 99 96 96 94 92 96 105 108 104 106 113 120 127 137 141 141 141 141 143 148 155 154 142 123 105 100 105 105 101 100 99 96 96 102 104 101 97 90 86 87 86 82 79 78 75 76 81 87 91 93 92 93 97 100 102 102 101 100 98 98 97 95 94 93 92 93 95 97 99 97 92 86 83 81 77 73 70 66 62 58 55 53 53 54 53 51
110 110 108 107 105 103 107 115 114 105 105 116 126 133 138 140 139 140 141 139 140 145 148 140 125 114 112 116 116 109 104 101 97 97 102 108 110 110 108 104 99 93 87 83 82 81 81 81 83 87 90 91 92 97 100 100 99 99 98 98 97 96 94 92 91 91 90 90 90 93 97 96 91 87 83 78 75 71 63 55 51 48 45 46 48 45 45
118 120 116 110 109 111 115 120 118 111 112 120 124 128 133 136 136 136 134 131 130 132 134 130 124 119 119 121 119 113 109 108 106 103 103 106 113 116 115 111 102 91 84 81 81 81 82 82 80 82 87 92 96 98 99 98 97 98 98 97 96 95 93 91 89 86 83 81 82 87 95 99 96 87 77 72 74 75 67 57 55 56 56 57 57 55 55
120 118 114 111 112 115 119 122 120 116 117 121 121 124 131 135 136 136 134 128 124 126 130 128 124 126 129 129 125 121 120 119 116 114 112 110 112 114 114 109 100 90 84 85 86 86 85 86 85 84 88 93 96 96 96 96 97 98 97 96 97 96 93 90 87 83 80 83 91 97 99 100 97 90 82 81 83 82 73 64 63 65 65 63 61 60 61
111 112 114 115 115 118 126 133 136 135 133 130 125 123 127 132 135 137 135 130 128 133 139 138 136 139 141 135 125 122 126 126 123 122 121 119 121 124 122 113 103 96 92 93 93 91 90 91 92 92 94 96 96 95 94 94 94 94 92 92 95 96 90 82 80 82 86 93 98 99 98 98 96 92 90 90 87 81 72 67 66 66 65 61 58 56 56
104 110 115 116 114 117 129 141 145 140 133 127 122 120 125 129 132 135 139 138 137 139 143 143 142 145 146 138 128 125 126 123 120 120 123 124 127 131 129 120 110 105 105 103 100 97 98 101 102 101 101 101 99 96 94 94 94 91 86 83 85 87 80 73 73 86 97 100 100 98 97 96 93 90 88 86 82 77 72 68 64 61 60 57 53 50 49
107 110 114 117 117 118 127 139 143 140 135 131 125 124 130 134 134 136 140 141 139 138 139 138 136 137 138 137 136 135 130 120 110 112 122 125 127 130 132 127 118 111 107 102 97 97 102 107 109 108 107 106 102 98 95 95 97 96 91 87 88 88 84 80 83 93 102 104 102 101 99 96 93 90 87 83 78 75 71 65 59 56 53 50 47 43 41
119 113 110 114 116 117 124 133 137 138 147 155 143 133 136 140 138 136 138 140 138 137 137 135 133 134 136 136 137 140 137 130 122 123 131 134 134 136 136 130 121 115 110 103 98 99 103 107 108 109 109 107 104 100 99 99 100 102 103 100 95 91 90 92 96 102 106 107 105 101 97 93 88 85 81 77 72 67 63 59 55 50 45 41 39 36 32
125 117 115 118 118 119 125 131 133 141 163 165 147 137 140 143 139 136 137 138 137 137 138 134 131 133 137 140 142 144 144 142 139 139 141 140 136 133 132 129 126 125 124 117 110 108 110 110 109 109 108 106 105 106 105 102 101 103 109 109 101 93 93 99 104 106 107 105 101 94 87 82 78 73 70 68 65 61 58 55 51 46 41 36 32 27 22
129 125 125 127 126 126 132 139 147 161 170 167 154 147 147 144 138 138 143 143 140 139 139 137 133 130 129 132 136 137 134 133 134 135 137 135 131 135 142 143 139 137 137 131 124 121 124 125 122 116 109 105 108 112 109 103 100 105 114 120 118 108 100 100 101 100 100 99 96 90 86 83 79 73 70 68 63 58 52 49 45 41 32 22 16 11 5
147 148 138 118 98 94 97 140 196 195 188 174 159 154 152 146 139 141 148 147 143 138 135 136 137 134 129 126 126 126 126 125 125 126 128 129 128 133 147 154 150 147 147 145 136 133 138 140 134 121 108 104 109 113 111 106 103 107 115 124 126 120 111 106 103 99 97 97 96 94 92 89 84 79 76 73 68 60 51 44 38 30 16 6 5 4 358
100 114 111 96 81 74 71 73 94 147 167 161 152 152 154 149 140 136 143 148 148 144 137 129 127 130 129 124 121 121 122 120 116 113 114 116 116 119 131 145 153 157 158 152 142 138 142 146 140 126 110 105 106 108 110 109 103 102 106 115 123 126 125 121 116 110 107 107 106 104 100 96 88 82 78 78 77 75 65 48 29 10 355 351 351 350 347